Pine River, MN

7:54 AM CDT on June 24, 2017 (GMT -0500)
Pine River Regional

Weather History for KPWC - October, 2013

Change the Weather History Date:

Friday, October 25, 2013

  Actual Average Record
Temperature  
Mean Temperature 40 °F -  
Max Temperature 55 °F 47 °F 64 °F (2000)
Min Temperature 24 °F 31 °F 21 °F (2005)
Degree Days  
Heating Degree Days 26    
Moisture  
Dew Point 31 °F    
Average Humidity 72    
Maximum Humidity 100    
Minimum Humidity 50    
Precipitation  
Precipitation 0.00 in - - ()
Sea Level Pressure  
Sea Level Pressure 29.99 in    
Wind  
Wind Speed 4 mph (SW)    
Max Wind Speed 20 mph    
Max Gust Speed 28 mph    
Visibility 10 miles    
Events      
Averages and records for this station are not official NWS values.
T = Trace of Precipitation, MM = Missing Value Source: NWS Daily Summary

Daily Weather History Graph

Daily Weather History Graph

Search for Another Location

Airport or City:

Trip Planner

Search our weather history database for the weather conditions in past years. The results will help you decide how hot, cold, wet, or windy it might be!

Date:

Astronomy

Oct. 25, 2013 Rise Set
Actual Time 7:49 AM CDT 6:12 PM CDT
Civil Twilight 7:18 AM CDT 6:43 PM CDT
Nautical Twilight 6:43 AM CDT 7:19 PM CDT
Astronomical Twilight 6:08 AM CDT 7:54 PM CDT
Moon 11:27 PM CDT (10/25) 1:36 PM CDT (10/25)
Length of Visible Light 11h 25m
Length of Day
10h 22m
Waning Gibbous, 62% of the Moon is Illuminated
Oct 25
Waning Gibbous
Oct 26
Last Quarter
Nov 3
New
Nov 9
First Quarter
Nov 17
Full

Hourly Weather History & Observations

Time (CDT) Temp. Windchill Dew Point Humidity Pressure Visibility Wind Dir Wind Speed Gust Speed Precip Events Conditions
12:13 AM 32.0 °F - 28.4 °F 87% 30.28 in 10.0 mi Calm Calm - N/A   Overcast
12:33 AM 30.2 °F - 26.6 °F 86% 30.28 in 10.0 mi Calm Calm - N/A   Overcast
12:52 AM 30.2 °F - 26.6 °F 86% 30.28 in 10.0 mi Calm Calm - N/A   Overcast
1:13 AM 32.0 °F - 26.6 °F 80% 30.27 in 10.0 mi Calm Calm - N/A   Overcast
1:32 AM 32.0 °F - 26.6 °F 80% 30.28 in 10.0 mi Calm Calm - N/A   Overcast
1:52 AM 32.0 °F - 26.6 °F 80% 30.28 in 10.0 mi Calm Calm - N/A   Overcast
2:13 AM 32.0 °F - 26.6 °F 80% 30.27 in 10.0 mi Calm Calm - N/A   Overcast
2:33 AM 32.0 °F - 26.6 °F 80% 30.26 in 10.0 mi Calm Calm - N/A   Overcast
2:53 AM 30.2 °F - 26.6 °F 86% 30.26 in 10.0 mi Calm Calm - N/A   Scattered Clouds
3:12 AM 28.4 °F - 26.6 °F 93% 30.26 in 10.0 mi Calm Calm - N/A   Clear
3:32 AM 28.4 °F - 26.6 °F 93% 30.25 in 10.0 mi Calm Calm - N/A   Clear
3:53 AM 26.6 °F - 24.8 °F 93% 30.25 in 10.0 mi Calm Calm - N/A   Clear
4:12 AM 26.6 °F - 24.8 °F 93% 30.24 in 10.0 mi Calm Calm - N/A   Clear
4:33 AM 24.8 °F - 24.8 °F 100% 30.24 in 10.0 mi Calm Calm - N/A   Clear
4:53 AM 24.8 °F - 24.8 °F 100% 30.24 in 10.0 mi Calm Calm - N/A   Clear
5:12 AM 24.8 °F - 23.0 °F 93% 30.23 in 10.0 mi Calm Calm - N/A   Clear
5:32 AM 24.8 °F - 23.0 °F 93% 30.23 in 7.0 mi Calm Calm - N/A   Clear
5:53 AM 24.8 °F - 23.0 °F 93% 30.22 in 10.0 mi Calm Calm - N/A   Clear
6:13 AM 24.8 °F - 23.0 °F 93% 30.22 in 10.0 mi Calm Calm - N/A   Clear
6:33 AM 24.8 °F 20.5 °F 24.8 °F 100% 30.21 in 10.0 mi South 3.5 mph - N/A   Clear
6:53 AM 26.6 °F 22.6 °F 24.8 °F 93% 30.20 in 10.0 mi South 3.5 mph - N/A   Clear
7:13 AM 26.6 °F 21.2 °F 24.8 °F 93% 30.18 in 10.0 mi South 4.6 mph - N/A   Clear
7:33 AM 28.4 °F - 26.6 °F 93% 30.18 in 10.0 mi Calm Calm - N/A   Clear
7:52 AM 28.4 °F 24.6 °F 26.6 °F 93% 30.17 in 10.0 mi South 3.5 mph - N/A   Clear
8:13 AM 28.4 °F 24.6 °F 26.6 °F 93% 30.16 in 10.0 mi South 3.5 mph - N/A   Clear
8:32 AM 28.4 °F 23.3 °F 26.6 °F 93% 30.15 in 10.0 mi South 4.6 mph - N/A   Clear
8:52 AM 28.4 °F 21.2 °F 26.6 °F 93% 30.14 in 10.0 mi SSW 6.9 mph - N/A   Clear
9:12 AM 30.2 °F 24.3 °F 26.6 °F 86% 30.13 in 10.0 mi South 5.8 mph - N/A   Clear
9:33 AM 32.0 °F 26.4 °F 26.6 °F 80% 30.12 in 10.0 mi South 5.8 mph - N/A   Clear
9:52 AM 33.8 °F 26.4 °F 26.6 °F 75% 30.11 in 10.0 mi SSW 9.2 mph - N/A   Clear
10:12 AM 33.8 °F 27.0 °F 26.6 °F 75% 30.09 in 10.0 mi South 8.1 mph - N/A   Clear
10:33 AM 35.6 °F 28.0 °F 26.6 °F 70% 30.06 in 10.0 mi South 10.4 mph - N/A   Clear
10:53 AM 35.6 °F 28.0 °F 26.6 °F 70% 30.03 in 10.0 mi South 10.4 mph 16.1 mph N/A   Clear
11:13 AM 35.6 °F 28.6 °F 26.6 °F 70% 30.03 in 10.0 mi South 9.2 mph 18.4 mph N/A   Clear
11:33 AM 37.4 °F 30.8 °F 28.4 °F 70% 30.00 in 10.0 mi South 9.2 mph - N/A   Clear
11:53 AM 39.2 °F 33.0 °F 28.4 °F 65% 30.00 in 10.0 mi SSW 9.2 mph - N/A   Clear
12:12 PM 39.2 °F 32.0 °F 28.4 °F 65% 29.98 in 10.0 mi SSW 11.5 mph 18.4 mph N/A   Clear
12:33 PM 39.2 °F 33.0 °F 28.4 °F 65% 29.97 in 10.0 mi SSW 9.2 mph - N/A   Clear
12:53 PM 41.0 °F 35.8 °F 28.4 °F 61% 29.93 in 10.0 mi South 8.1 mph 17.3 mph N/A   Clear
1:13 PM 42.8 °F 36.6 °F 30.2 °F 61% 29.90 in 10.0 mi South 11.5 mph - N/A   Clear
1:33 PM 44.6 °F 37.8 °F 30.2 °F 57% 29.88 in 10.0 mi South 15.0 mph 20.7 mph N/A   Clear
1:51 PM 46.4 °F 40.1 °F 30.2 °F 53% 29.86 in 10.0 mi South 15.0 mph 19.6 mph N/A   Clear
2:13 PM 48.2 °F - 33.8 °F 58% 29.81 in 10.0 mi SSW 13.8 mph 20.7 mph N/A   Clear
2:33 PM 48.2 °F - 33.8 °F 58% 29.80 in 10.0 mi SSW 15.0 mph 25.3 mph N/A   Clear
2:52 PM 51.8 °F - 35.6 °F 54% 29.78 in 10.0 mi SW 16.1 mph 23.0 mph N/A   Clear
3:13 PM 51.8 °F - 35.6 °F 54% 29.78 in 10.0 mi SW 11.5 mph 21.9 mph N/A   Clear
3:33 PM 53.6 °F - 37.4 °F 54% 29.78 in 10.0 mi WSW 10.4 mph 20.7 mph N/A   Clear
3:53 PM 53.6 °F - 37.4 °F 54% 29.77 in 10.0 mi WSW 15.0 mph 23.0 mph N/A   Scattered Clouds
4:13 PM 53.6 °F - 37.4 °F 54% 29.76 in 10.0 mi SW 12.7 mph 21.9 mph N/A   Overcast
4:32 PM 53.6 °F - 39.2 °F 58% 29.75 in 10.0 mi WSW 11.5 mph 19.6 mph N/A   Mostly Cloudy
4:51 PM 55.4 °F - 39.2 °F 54% 29.75 in 10.0 mi WSW 10.4 mph 21.9 mph N/A   Scattered Clouds
5:12 PM 55.4 °F - 39.2 °F 54% 29.74 in 10.0 mi WSW 8.1 mph 17.3 mph N/A   Clear
5:33 PM 53.6 °F - 39.2 °F 58% 29.74 in 10.0 mi West 12.7 mph 19.6 mph N/A   Clear
5:53 PM 53.6 °F - 39.2 °F 58% 29.75 in 10.0 mi West 9.2 mph - N/A   Clear
6:12 PM 51.8 °F - 39.2 °F 62% 29.75 in 10.0 mi West 4.6 mph - N/A   Clear
6:33 PM 51.8 °F - 39.2 °F 62% 29.76 in 10.0 mi West 3.5 mph - N/A   Clear
6:52 PM 51.8 °F - 39.2 °F 62% 29.76 in 10.0 mi West 5.8 mph - N/A   Clear
7:13 PM 51.8 °F - 39.2 °F 62% 29.76 in 10.0 mi West 4.6 mph - N/A   Clear
7:33 PM 50.0 °F - 37.4 °F 62% 29.77 in 10.0 mi West 4.6 mph - N/A   Scattered Clouds
7:53 PM 50.0 °F - 37.4 °F 62% 29.77 in 10.0 mi West 5.8 mph - N/A   Mostly Cloudy
8:12 PM 51.8 °F - 37.4 °F 58% 29.77 in 10.0 mi WNW 6.9 mph - N/A   Mostly Cloudy
8:33 PM 51.8 °F - 35.6 °F 54% 29.76 in 10.0 mi WNW 6.9 mph - N/A   Mostly Cloudy
8:52 PM 50.0 °F - 35.6 °F 58% 29.76 in 10.0 mi West 5.8 mph - N/A   Mostly Cloudy
9:13 PM 50.0 °F - 35.6 °F 58% 29.76 in 10.0 mi WNW 5.8 mph - N/A   Overcast
9:32 PM 51.8 °F - 33.8 °F 50% 29.77 in 10.0 mi NW 9.2 mph 19.6 mph N/A   Overcast
9:53 PM 50.0 °F - 33.8 °F 54% 29.78 in 10.0 mi WNW 10.4 mph 16.1 mph N/A   Mostly Cloudy
10:12 PM 48.2 °F - 33.8 °F 58% 29.79 in 10.0 mi NW 11.5 mph 23.0 mph N/A   Scattered Clouds
10:33 PM 48.2 °F - 33.8 °F 58% 29.80 in 10.0 mi NW 8.1 mph - N/A   Scattered Clouds
10:53 PM 46.4 °F 40.4 °F 33.8 °F 62% 29.81 in 10.0 mi NNW 13.8 mph 24.2 mph N/A   Mostly Cloudy
11:12 PM 46.4 °F 42.4 °F 35.6 °F 66% 29.82 in 10.0 mi NW 8.1 mph 16.1 mph N/A   Overcast
11:33 PM 44.6 °F 36.6 °F 30.2 °F 57% 29.83 in 10.0 mi NW 19.6 mph 27.6 mph N/A   Mostly Cloudy
11:52 PM 44.6 °F 37.8 °F 28.4 °F 53% 29.83 in 10.0 mi NW 15.0 mph 23.0 mph N/A   Clear